Location: Unspecified
(34.4950°S, 58.5160°W)
Time: 00:45:24
(UTC+00:00)

Cosmos 1898 Rocket - Pass Details

Date: 19 April 2026
Orbit: 750 x 778 km, 74.0° (Epoch: 12 May)

Event Time Altitude Azimuth Distance (km) Brightness Sun altitude
Rises 09:40:28 0° 348° (NNW) 3,205 6.7 -8.9°
Reaches altitude 10° 09:42:48 10° 350° (N) 2,291 6.0 -8.5°
Maximum altitude 09:48:00 77° 75° (ENE) 795 3.8 -7.4°
Drops below altitude 10° 09:53:19 10° 160° (SSE) 2,340 6.2 -6.3°
Sets 09:55:44 0° 161° (SSE) 3,278 6.9 -5.8°
